QPF
0.00 0.00 0.00 0.00 0.00 0.00 0.00 0.00 0.00 0.00 0.00 0.00 0.00 0.00 0.00 0.00 0.00 0.00 0.00 0.00 0.00 0.00 0.00 0.01 0.01 0.05 0.19 0.25 0.19 0.10 0.06 0.04 0.03 0.02 0.01 0.01 0.01 0.01 0.02 0.04 0.06 0.07 0.07 0.05
0.00 0.00 0.00 0.00 0.00 0.00 0.00 0.00 0.00 0.00 0.00 0.00 0.00 0.00 0.00 0.00 0.00 0.00 0.00 0.00 0.00 0.00 0.00 0.00 0.00 0.02 0.09 0.14 0.12 0.09 0.10 0.10 0.09 0.08 0.06 0.05 0.05 0.06 0.09 0.13 0.14 0.14 0.11 0.08
0.00 0.00 0.00 0.00 0.00 0.00 0.00 0.00 0.00 0.00 0.00 0.00 0.00 0.00 0.00 0.00 0.00 0.00 0.00 0.00 0.00 0.00 0.00 0.00 0.00 0.01 0.05 0.10 0.14 0.13 0.16 0.20 0.23 0.24 0.20 0.17 0.17 0.19 0.22 0.23 0.22 0.18 0.13 0.09
0.00 0.00 0.00 0.00 0.00 0.00 0.00 0.00 0.00 0.00 0.00 0.00 0.00 0.00 0.00 0.00 0.00 0.00 0.00 0.00 0.00 0.00 0.00 0.00 0.00 0.01 0.02 0.05 0.10 0.15 0.21 0.33 0.48 0.60 0.61 0.51 0.41 0.37 0.35 0.33 0.28 0.21 0.14 0.09
0.00 0.00 0.00 0.00 0.00 0.00 0.00 0.00 0.00 0.00 0.00 0.00 0.00 0.00 0.00 0.00 0.00 0.00 0.00 0.00 0.00 0.00 0.00 0.00 0.01 0.02 0.05 0.09 0.16 0.23 0.32 0.46 0.62 0.69 0.73 0.65 0.51 0.45 0.42 0.39 0.29 0.18 0.11 0.08
0.00 0.00 0.00 0.00 0.00 0.00 0.00 0.00 0.00 0.00 0.00 0.00 0.00 0.00 0.00 0.00 0.00 0.00 0.00 0.00 0.00 0.00 0.00 0.00 0.01 0.05 0.11 0.18 0.25 0.32 0.37 0.46 0.55 0.55 0.50 0.43 0.41 0.38 0.34 0.27 0.19 0.12 0.08 0.05
0.00 0.00 0.00 0.00 0.00 0.00 0.00 0.00 0.00 0.00 0.00 0.00 0.00 0.00 0.00 0.00 0.00 0.00 0.00 0.00 0.00 0.00 0.00 0.01 0.04 0.09 0.15 0.22 0.27 0.28 0.30 0.29 0.29 0.29 0.28 0.24 0.23 0.19 0.16 0.14 0.11 0.07 0.04 0.03
0.00 0.00 0.00 0.00 0.00 0.00 0.00 0.00 0.00 0.00 0.00 0.00 0.00 0.00 0.00 0.00 0.00 0.00 0.00 0.00 0.01 0.01 0.02 0.04 0.07 0.11 0.17 0.21 0.22 0.21 0.17 0.13 0.09 0.09 0.11 0.12 0.10 0.09 0.08 0.06 0.04 0.03 0.02 0.01
0.00 0.00 0.00 0.00 0.00 0.00 0.00 0.00 0.00 0.00 0.00 0.00 0.00 0.00 0.00 0.00 0.00 0.00 0.01 0.01 0.02 0.04 0.05 0.09 0.12 0.15 0.17 0.17 0.15 0.10 0.06 0.05 0.04 0.03 0.04 0.04 0.04 0.05 0.04 0.03 0.02 0.02 0.01 0.01
0.00 0.00 0.00 0.00 0.00 0.00 0.00 0.00 0.00 0.00 0.00 0.00 0.00 0.00 0.00 0.00 0.00 0.00 0.01 0.02 0.03 0.05 0.06 0.10 0.13 0.15 0.14 0.11 0.08 0.06 0.04 0.03 0.02 0.02 0.01 0.02 0.02 0.03 0.03 0.02 0.01 0.01 0.01 0.00
0.00 0.00 0.00 0.00 0.00 0.00 0.00 0.00 0.00 0.00 0.00 0.00 0.00 0.00 0.00 0.00 0.00 0.00 0.01 0.02 0.04 0.06 0.09 0.13 0.16 0.14 0.11 0.08 0.06 0.04 0.03 0.01 0.01 0.01 0.02 0.02 0.03 0.02 0.02 0.01 0.01 0.01 0.00 0.00
0.00 0.00 0.00 0.00 0.00 0.00 0.00 0.00 0.00 0.00 0.00 0.00 0.00 0.00 0.01 0.01 0.01 0.01 0.02 0.05 0.10 0.17 0.21 0.23 0.20 0.13 0.08 0.05 0.03 0.02 0.01 0.01 0.01 0.02 0.02 0.03 0.02 0.02 0.01 0.01 0.01 0.01 0.00 0.00
0.00 0.00 0.00 0.00 0.00 0.00 0.00 0.00 0.00 0.00 0.00 0.00 0.01 0.03 0.04 0.02 0.02 0.01 0.02 0.06 0.19 0.40 0.42 0.30 0.17 0.09 0.04 0.02 0.01 0.01 0.01 0.01 0.01 0.01 0.01 0.01 0.01 0.01 0.01 0.01 0.00 0.00 0.00 0.00
0.00 0.00 0.00 0.00 0.00 0.00 0.00 0.00 0.00 0.01 0.01 0.01 0.02 0.03 0.03 0.03 0.03 0.04 0.05 0.06 0.17 0.27 0.19 0.10 0.05 0.02 0.01 0.01 0.00 0.00 0.00 0.01 0.00 0.00 0.01 0.01 0.01 0.01 0.01 0.01 0.00 0.00 0.00 0.01
0.00 0.00 0.00 0.00 0.00 0.00 0.00 0.00 0.00 0.01 0.01 0.02 0.02 0.03 0.04 0.04 0.05 0.06 0.08 0.09 0.12 0.12 0.08 0.04 0.02 0.01 0.01 0.00 0.00 0.00 0.00 0.00 0.00 0.00 0.01 0.01 0.01 0.01 0.01 0.01 0.01 0.00 0.00 0.00
0.00 0.00 0.00 0.00 0.00 0.00 0.00 0.00 0.00 0.00 0.00 0.00 0.02 0.05 0.05 0.05 0.06 0.08 0.10 0.10 0.10 0.08 0.05 0.03 0.02 0.01 0.01 0.00 0.00 0.00 0.01 0.01 0.01 0.02 0.02 0.02 0.01 0.02 0.01 0.01 0.01 0.01 0.01 0.00
0.00 0.00 0.00 0.00 0.00 0.00 0.00 0.00 0.00 0.00 0.00 0.00 0.01 0.03 0.02 0.02 0.03 0.04 0.05 0.05 0.05 0.04 0.03 0.02 0.01 0.01 0.01 0.01 0.01 0.02 0.02 0.03 0.03 0.03 0.03 0.03 0.03 0.02 0.02 0.01 0.01 0.01 0.00 0.00
0.00 0.00 0.00 0.00 0.00 0.00 0.00 0.01 0.01 0.01 0.01 0.01 0.01 0.01 0.01 0.00 0.01 0.01 0.01 0.01 0.02 0.01 0.01 0.01 0.01 0.01 0.01 0.01 0.02 0.03 0.04 0.05 0.06 0.06 0.05 0.04 0.03 0.03 0.02 0.01 0.00 0.00 0.00 0.00
0.00 0.00 0.00 0.00 0.00 0.00 0.01 0.01 0.01 0.01 0.02 0.01 0.01 0.01 0.01 0.00 0.00 0.00 0.00 0.00 0.00 0.00 0.01 0.01 0.01 0.01 0.02 0.03 0.04 0.04 0.06 0.07 0.07 0.06 0.04 0.03 0.02 0.01 0.01 0.00 0.00 0.00 0.00 0.00
0.01 0.01 0.01 0.01 0.01 0.01 0.02 0.01 0.00 0.01 0.03 0.01 0.01 0.01 0.01 0.00 0.00 0.00 0.00 0.00 0.00 0.00 0.01 0.01 0.01 0.02 0.02 0.03 0.03 0.04 0.05 0.05 0.04 0.03 0.01 0.01 0.00 0.00 0.00 0.00 0.00 0.00 0.00 0.00
0.05 0.05 0.04 0.03 0.02 0.03 0.01 0.01 0.01 0.02 0.02 0.01 0.01 0.00 0.00 0.00 0.00 0.00 0.00 0.00 0.00 0.00 0.01 0.01 0.01 0.02 0.02 0.03 0.03 0.03 0.03 0.02 0.01 0.01 0.00 0.00 0.00 0.00 0.00 0.00 0.00 0.00 0.00 0.00
0.08 0.08 0.07 0.06 0.05 0.05 0.01 0.00 0.01 0.02 0.02 0.01 0.01 0.00 0.00 0.00 0.00 0.00 0.00 0.00 0.00 0.00 0.01 0.01 0.01 0.02 0.02 0.02 0.02 0.01 0.01 0.00 0.00 0.00 0.00 0.00 0.00 0.00 0.00 0.00 0.00 0.00 0.00 0.00
0.03 0.03 0.04 0.06 0.06 0.04 0.01 0.01 0.01 0.01 0.01 0.01 0.00 0.00 0.00 0.00 0.00 0.00 0.00 0.00 0.00 0.01 0.01 0.01 0.01 0.01 0.01 0.01 0.01 0.00 0.00 0.00 0.00 0.00 0.00 0.00 0.00 0.00 0.00 0.00 0.00 0.00 0.00 0.00
0.02 0.01 0.01 0.02 0.03 0.02 0.02 0.03 0.02 0.01 0.01 0.00 0.00 0.00 0.00 0.00 0.00 0.00 0.00 0.00 0.01 0.01 0.00 0.00 0.01 0.01 0.00 0.00 0.00 0.00 0.00 0.00 0.00 0.00 0.00 0.01 0.01 0.00 0.00 0.00 0.00 0.00 0.00 0.00
0.01 0.01 0.01 0.01 0.03 0.04 0.04 0.03 0.03 0.01 0.01 0.00 0.01 0.01 0.00 0.00 0.00 0.01 0.01 0.01 0.01 0.01 0.01 0.01 0.01 0.00 0.00 0.00 0.00 0.00 0.00 0.00 0.00 0.00 0.01 0.01 0.01 0.00 0.00 0.00 0.00 0.00 0.00 0.00
0.01 0.01 0.01 0.02 0.02 0.03 0.04 0.04 0.02 0.01 0.00 0.01 0.00 0.00 0.01 0.01 0.01 0.01 0.01 0.01 0.01 0.01 0.01 0.01 0.00 0.00 0.00 0.00 0.00 0.00 0.00 0.00 0.00 0.00 0.00 0.00 0.00 0.00 0.00 0.00 0.00 0.00 0.00 0.00
MSLP
1011.11 1011.99 1012.66 1013.10 1013.32 1013.34 1013.24 1013.05 1012.80 1012.52 1012.18 1011.77 1011.27 1010.67 1009.99 1009.24 1008.49 1007.78 1007.17 1006.68 1006.35 1006.15 1006.08 1006.11 1006.20 1006.35 1006.53 1006.78 1007.11 1007.53 1008.08 1008.75 1009.52 1010.35 1011.20 1012.02 1012.77 1013.41 1013.94 1014.39 1014.77 1015.14 1015.52 1015.94
1011.37 1012.08 1012.57 1012.87 1013.00 1013.04 1013.02 1013.00 1012.95 1012.86 1012.67 1012.33 1011.80 1011.09 1010.20 1009.21 1008.20 1007.25 1006.46 1005.87 1005.50 1005.34 1005.35 1005.47 1005.65 1005.86 1006.09 1006.36 1006.69 1007.13 1007.71 1008.45 1009.31 1010.27 1011.27 1012.23 1013.10 1013.84 1014.44 1014.91 1015.30 1015.65 1016.01 1016.42
1011.42 1011.94 1012.26 1012.41 1012.49 1012.56 1012.66 1012.82 1013.00 1013.12 1013.10 1012.85 1012.32 1011.50 1010.44 1009.21 1007.95 1006.78 1005.82 1005.13 1004.73 1004.62 1004.72 1004.96 1005.26 1005.58 1005.89 1006.22 1006.60 1007.07 1007.69 1008.48 1009.42 1010.47 1011.56 1012.61 1013.56 1014.36 1014.99 1015.47 1015.85 1016.18 1016.52 1016.91
1011.22 1011.56 1011.70 1011.74 1011.79 1011.92 1012.17 1012.55 1012.97 1013.33 1013.50 1013.36 1012.86 1011.98 1010.77 1009.35 1007.88 1006.53 1005.42 1004.65 1004.24 1004.18 1004.38 1004.75 1005.19 1005.64 1006.06 1006.47 1006.90 1007.41 1008.06 1008.87 1009.84 1010.91 1012.03 1013.11 1014.09 1014.90 1015.52 1015.99 1016.35 1016.65 1016.96 1017.32
1010.81 1010.95 1010.95 1010.91 1010.95 1011.17 1011.60 1012.20 1012.88 1013.48 1013.86 1013.87 1013.43 1012.53 1011.24 1009.70 1008.09 1006.61 1005.40 1004.58 1004.18 1004.18 1004.48 1004.98 1005.56 1006.13 1006.66 1007.14 1007.62 1008.16 1008.80 1009.59 1010.52 1011.55 1012.63 1013.67 1014.60 1015.37 1015.96 1016.40 1016.72 1016.99 1017.27 1017.60
1010.24 1010.21 1010.08 1009.99 1010.06 1010.38 1010.98 1011.80 1012.73 1013.58 1014.16 1014.34 1014.00 1013.15 1011.87 1010.28 1008.62 1007.08 1005.84 1005.01 1004.64 1004.70 1005.10 1005.70 1006.40 1007.07 1007.68 1008.22 1008.72 1009.24 1009.83 1010.55 1011.38 1012.32 1013.29 1014.23 1015.07 1015.76 1016.28 1016.67 1016.95 1017.19 1017.44 1017.76
1009.62 1009.43 1009.21 1009.08 1009.20 1009.62 1010.38 1011.40 1012.54 1013.59 1014.38 1014.72 1014.52 1013.78 1012.56 1011.04 1009.41 1007.91 1006.70 1005.92 1005.61 1005.73 1006.20 1006.89 1007.66 1008.40 1009.06 1009.61 1010.09 1010.56 1011.07 1011.66 1012.36 1013.14 1013.96 1014.75 1015.46 1016.05 1016.49 1016.82 1017.06 1017.28 1017.52 1017.83
1009.05 1008.75 1008.45 1008.32 1008.47 1008.98 1009.86 1011.01 1012.30 1013.51 1014.45 1014.95 1014.90 1014.30 1013.24 1011.84 1010.35 1008.97 1007.87 1007.18 1006.95 1007.15 1007.68 1008.41 1009.21 1009.97 1010.63 1011.16 1011.60 1011.98 1012.37 1012.82 1013.36 1013.96 1014.60 1015.24 1015.81 1016.28 1016.65 1016.92 1017.13 1017.34 1017.57 1017.88
1008.64 1008.25 1007.92 1007.79 1007.97 1008.53 1009.46 1010.68 1012.03 1013.32 1014.35 1014.96 1015.05 1014.63 1013.75 1012.57 1011.28 1010.09 1009.17 1008.62 1008.50 1008.76 1009.33 1010.08 1010.87 1011.61 1012.23 1012.71 1013.07 1013.36 1013.63 1013.94 1014.31 1014.75 1015.22 1015.70 1016.14 1016.52 1016.81 1017.04 1017.24 1017.44 1017.68 1017.98
1008.46 1008.03 1007.69 1007.56 1007.75 1008.31 1009.22 1010.42 1011.74 1013.01 1014.05 1014.72 1014.94 1014.68 1014.02 1013.09 1012.07 1011.13 1010.43 1010.05 1010.05 1010.38 1010.97 1011.70 1012.46 1013.14 1013.70 1014.11 1014.39 1014.58 1014.75 1014.94 1015.18 1015.48 1015.82 1016.18 1016.52 1016.81 1017.06 1017.26 1017.45 1017.66 1017.90 1018.21
1008.53 1008.11 1007.79 1007.68 1007.86 1008.37 1009.20 1010.28 1011.47 1012.63 1013.61 1014.28 1014.56 1014.45 1014.02 1013.36 1012.62 1011.97 1011.51 1011.33 1011.45 1011.84 1012.43 1013.13 1013.82 1014.43 1014.91 1015.25 1015.46 1015.59 1015.69 1015.80 1015.96 1016.16 1016.42 1016.69 1016.97 1017.22 1017.44 1017.64 1017.83 1018.04 1018.29 1018.59
1008.85 1008.48 1008.21 1008.12 1008.27 1008.69 1009.38 1010.28 1011.28 1012.25 1013.09 1013.70 1014.01 1014.03 1013.80 1013.40 1012.96 1012.59 1012.37 1012.38 1012.62 1013.07 1013.65 1014.29 1014.91 1015.44 1015.85 1016.12 1016.29 1016.39 1016.45 1016.53 1016.65 1016.82 1017.04 1017.27 1017.52 1017.75 1017.96 1018.17 1018.37 1018.59 1018.84 1019.12
1009.36 1009.08 1008.88 1008.81 1008.93 1009.25 1009.77 1010.44 1011.20 1011.95 1012.61 1013.11 1013.42 1013.53 1013.48 1013.32 1013.15 1013.05 1013.07 1013.25 1013.60 1014.08 1014.64 1015.22 1015.76 1016.21 1016.55 1016.78 1016.93 1017.02 1017.09 1017.18 1017.30 1017.47 1017.68 1017.91 1018.15 1018.38 1018.60 1018.82 1019.03 1019.25 1019.49 1019.75
1010.02 1009.85 1009.72 1009.69 1009.77 1009.98 1010.32 1010.76 1011.27 1011.78 1012.26 1012.64 1012.93 1013.11 1013.20 1013.26 1013.33 1013.47 1013.69 1014.02 1014.44 1014.94 1015.47 1015.98 1016.44 1016.82 1017.11 1017.31 1017.45 1017.56 1017.66 1017.78 1017.94 1018.13 1018.36 1018.60 1018.84 1019.08 1019.31 1019.53 1019.74 1019.96 1020.18 1020.41
1010.77 1010.70 1010.65 1010.65 1010.70 1010.81 1010.99 1011.23 1011.51 1011.81 1012.11 1012.39 1012.65 1012.89 1013.12 1013.36 1013.63 1013.95 1014.34 1014.78 1015.26 1015.76 1016.24 1016.68 1017.06 1017.37 1017.61 1017.80 1017.94 1018.08 1018.22 1018.38 1018.58 1018.80 1019.04 1019.29 1019.55 1019.79 1020.02 1020.24 1020.44 1020.65 1020.84 1021.03
1011.55 1011.56 1011.58 1011.60 1011.62 1011.66 1011.71 1011.78 1011.89 1012.03 1012.20 1012.41 1012.66 1012.96 1013.29 1013.68 1014.12 1014.59 1015.10 1015.61 1016.12 1016.60 1017.03 1017.40 1017.71 1017.95 1018.15 1018.32 1018.47 1018.63 1018.81 1019.01 1019.23 1019.47 1019.72 1019.97 1020.22 1020.45 1020.67 1020.88 1021.07 1021.25 1021.42 1021.57
1012.32 1012.39 1012.44 1012.47 1012.47 1012.45 1012.41 1012.38 1012.37 1012.41 1012.51 1012.69 1012.96 1013.32 1013.76 1014.27 1014.83 1015.41 1015.99 1016.55 1017.06 1017.50 1017.87 1018.17 1018.41 1018.60 1018.76 1018.91 1019.07 1019.24 1019.44 1019.65 1019.89 1020.13 1020.37 1020.60 1020.83 1021.04 1021.23 1021.42 1021.59 1021.75 1021.89 1022.01
1013.05 1013.13 1013.18 1013.20 1013.18 1013.12 1013.04 1012.95 1012.89 1012.89 1012.98 1013.17 1013.49 1013.92 1014.45 1015.06 1015.71 1016.36 1016.99 1017.56 1018.05 1018.45 1018.76 1018.99 1019.17 1019.31 1019.43 1019.57 1019.72 1019.89 1020.09 1020.30 1020.52 1020.75 1020.96 1021.16 1021.35 1021.53 1021.70 1021.86 1022.01 1022.15 1022.26 1022.34
1013.72 1013.76 1013.79 1013.77 1013.72 1013.64 1013.54 1013.44 1013.38 1013.40 1013.52 1013.76 1014.15 1014.65 1015.26 1015.95 1016.66 1017.36 1018.00 1018.56 1019.02 1019.37 1019.63 1019.80 1019.93 1020.03 1020.12 1020.23 1020.37 1020.53 1020.72 1020.92 1021.12 1021.31 1021.49 1021.65 1021.81 1021.95 1022.09 1022.23 1022.36 1022.47 1022.56 1022.60
1014.32 1014.28 1014.24 1014.19 1014.10 1014.00 1013.90 1013.82 1013.80 1013.87 1014.05 1014.37 1014.83 1015.40 1016.08 1016.82 1017.57 1018.28 1018.92 1019.47 1019.89 1020.20 1020.41 1020.54 1020.63 1020.69 1020.76 1020.86 1020.98 1021.13 1021.30 1021.47 1021.64 1021.80 1021.95 1022.08 1022.20 1022.32 1022.44 1022.55 1022.66 1022.76 1022.82 1022.84
1014.81 1014.69 1014.57 1014.45 1014.33 1014.22 1014.13 1014.09 1014.12 1014.26 1014.52 1014.92 1015.44 1016.09 1016.82 1017.59 1018.35 1019.07 1019.69 1020.20 1020.60 1020.87 1021.04 1021.15 1021.20 1021.25 1021.31 1021.39 1021.50 1021.63 1021.78 1021.93 1022.08 1022.21 1022.33 1022.44 1022.55 1022.65 1022.75 1022.86 1022.96 1023.04 1023.09 1023.08
1015.19 1014.98 1014.79 1014.61 1014.46 1014.34 1014.27 1014.27 1014.36 1014.57 1014.91 1015.37 1015.96 1016.65 1017.41 1018.19 1018.95 1019.65 1020.25 1020.74 1021.10 1021.35 1021.50 1021.59 1021.64 1021.68 1021.72 1021.80 1021.90 1022.02 1022.15 1022.29 1022.42 1022.54 1022.65 1022.75 1022.85 1022.95 1023.06 1023.17 1023.26 1023.33 1023.36 1023.34
1015.46 1015.18 1014.92 1014.70 1014.52 1014.40 1014.36 1014.40 1014.55 1014.83 1015.22 1015.74 1016.37 1017.08 1017.85 1018.63 1019.37 1020.04 1020.62 1021.08 1021.42 1021.65 1021.80 1021.88 1021.92 1021.96 1022.01 1022.08 1022.17 1022.28 1022.41 1022.54 1022.66 1022.78 1022.89 1023.00 1023.11 1023.22 1023.34 1023.46 1023.55 1023.62 1023.64 1023.60
1015.62 1015.29 1015.00 1014.75 1014.57 1014.47 1014.45 1014.54 1014.74 1015.06 1015.50 1016.05 1016.69 1017.41 1018.16 1018.92 1019.63 1020.27 1020.82 1021.25 1021.58 1021.81 1021.95 1022.03 1022.09 1022.13 1022.18 1022.24 1022.33 1022.44 1022.55 1022.68 1022.80 1022.93 1023.05 1023.18 1023.31 1023.44 1023.58 1023.70 1023.80 1023.87 1023.88 1023.82
1015.68 1015.34 1015.04 1014.80 1014.64 1014.56 1014.59 1014.72 1014.96 1015.32 1015.78 1016.34 1016.98 1017.67 1018.39 1019.11 1019.78 1020.39 1020.91 1021.32 1021.64 1021.87 1022.01 1022.10 1022.16 1022.21 1022.26 1022.32 1022.40 1022.50 1022.61 1022.73 1022.86 1022.99 1023.13 1023.28 1023.43 1023.58 1023.73 1023.87 1023.97 1024.04 1024.04 1023.97
1015.66 1015.34 1015.08 1014.87 1014.75 1014.73 1014.80 1014.97 1015.24 1015.62 1016.09 1016.64 1017.25 1017.91 1018.59 1019.25 1019.88 1020.45 1020.94 1021.34 1021.65 1021.87 1022.03 1022.13 1022.19 1022.24 1022.29 1022.34 1022.41 1022.49 1022.59 1022.71 1022.84 1022.97 1023.13 1023.29 1023.45 1023.62 1023.79 1023.93 1024.04 1024.10 1024.10 1024.02
Thickness
5733 5717 5712 5722 5729 5730 5732 5728 5727 5747 5770 5764 5761 5768 5789 5806 5807 5803 5802 5802 5801 5807 5814 5811 5807 5803 5797 5793 5790 5788 5783 5777 5769 5760 5752 5742 5733 5728 5723 5717 5712 5707 5703 5698
5714 5710 5727 5734 5735 5732 5727 5720 5724 5743 5766 5763 5757 5762 5781 5795 5802 5808 5807 5804 5804 5803 5804 5803 5801 5797 5794 5790 5787 5782 5777 5771 5763 5755 5745 5734 5724 5715 5708 5703 5699 5694 5690 5686
5703 5720 5733 5728 5725 5723 5722 5719 5725 5732 5752 5757 5754 5748 5763 5785 5800 5808 5811 5813 5812 5808 5804 5802 5798 5794 5789 5784 5780 5774 5766 5757 5750 5743 5733 5721 5711 5704 5696 5690 5683 5679 5675 5672
5707 5724 5726 5723 5722 5722 5714 5738 5739 5738 5730 5723 5740 5714 5744 5766 5779 5791 5798 5802 5807 5808 5804 5801 5797 5790 5785 5778 5771 5764 5757 5747 5738 5729 5720 5708 5699 5691 5684 5679 5673 5668 5663 5658
5707 5722 5719 5718 5729 5733 5728 5747 5741 5739 5730 5720 5727 5715 5725 5754 5764 5778 5790 5797 5802 5801 5798 5795 5791 5785 5777 5768 5760 5754 5747 5736 5727 5716 5706 5697 5688 5681 5675 5670 5665 5659 5653 5649
5713 5729 5728 5729 5741 5744 5745 5742 5735 5721 5709 5698 5717 5714 5712 5741 5757 5769 5783 5789 5792 5791 5789 5784 5779 5772 5763 5756 5748 5740 5732 5723 5715 5706 5695 5688 5680 5674 5668 5663 5657 5651 5644 5638
5699 5715 5730 5738 5729 5738 5738 5712 5689 5689 5677 5686 5714 5712 5714 5745 5760 5766 5768 5770 5773 5773 5769 5764 5758 5752 5745 5738 5731 5724 5718 5709 5704 5694 5686 5680 5675 5670 5664 5657 5651 5643 5635 5627
5680 5692 5724 5737 5732 5725 5727 5715 5685 5674 5672 5684 5709 5705 5720 5743 5756 5761 5758 5755 5752 5749 5747 5742 5737 5731 5724 5717 5710 5705 5699 5693 5688 5682 5675 5669 5664 5659 5653 5647 5641 5633 5625 5617
5685 5695 5733 5744 5750 5740 5724 5714 5717 5695 5688 5680 5687 5709 5725 5735 5739 5742 5738 5735 5731 5728 5725 5721 5716 5711 5704 5697 5690 5685 5681 5676 5672 5667 5663 5657 5651 5645 5639 5633 5627 5619 5611 5604
5700 5696 5720 5739 5746 5743 5738 5729 5700 5684 5669 5663 5681 5691 5688 5704 5714 5720 5719 5716 5713 5710 5707 5702 5697 5692 5686 5681 5673 5668 5663 5659 5656 5652 5648 5642 5636 5630 5624 5618 5611 5604 5597 5591
5698 5688 5703 5719 5717 5714 5725 5721 5707 5686 5681 5666 5663 5668 5693 5695 5703 5707 5706 5703 5698 5694 5690 5686 5681 5678 5673 5668 5662 5655 5648 5642 5640 5636 5632 5626 5620 5615 5609 5603 5596 5589 5583 5577
5685 5679 5680 5700 5719 5729 5720 5712 5700 5681 5676 5673 5662 5655 5685 5686 5691 5695 5693 5689 5683 5678 5674 5669 5665 5662 5658 5654 5648 5645 5637 5629 5626 5623 5618 5612 5606 5601 5594 5588 5581 5575 5568 5562
5677 5666 5660 5672 5683 5698 5698 5698 5696 5683 5669 5662 5652 5648 5672 5675 5677 5680 5678 5672 5666 5659 5655 5651 5647 5644 5641 5637 5634 5630 5624 5618 5613 5608 5603 5596 5590 5585 5578 5571 5565 5559 5552 5545
5675 5654 5650 5648 5656 5674 5679 5685 5686 5675 5655 5654 5655 5651 5655 5659 5661 5661 5660 5656 5650 5645 5639 5633 5629 5626 5623 5620 5617 5612 5607 5603 5597 5591 5585 5578 5572 5566 5560 5553 5547 5541 5534 5527
5659 5645 5651 5656 5667 5673 5674 5676 5678 5672 5667 5656 5653 5648 5646 5649 5652 5651 5647 5643 5639 5634 5626 5618 5612 5608 5606 5602 5598 5593 5588 5584 5579 5573 5566 5559 5554 5548 5541 5534 5527 5521 5514 5508
5640 5638 5640 5641 5656 5663 5663 5666 5668 5664 5663 5656 5646 5637 5636 5638 5641 5638 5633 5630 5625 5620 5612 5604 5598 5593 5589 5585 5579 5575 5569 5564 5559 5552 5546 5540 5535 5528 5521 5514 5507 5501 5496 5490
5622 5623 5619 5618 5635 5644 5631 5640 5645 5642 5646 5645 5633 5626 5623 5622 5621 5618 5615 5613 5609 5602 5595 5587 5580 5575 5570 5565 5561 5556 5550 5545 5539 5533 5527 5521 5515 5508 5502 5496 5489 5483 5478 5473
5613 5609 5602 5605 5615 5605 5608 5628 5630 5626 5624 5627 5622 5613 5608 5605 5599 5595 5594 5592 5588 5582 5575 5567 5561 5555 5550 5546 5542 5537 5532 5526 5520 5514 5508 5502 5496 5490 5484 5478 5472 5467 5463 5458
5608 5602 5593 5588 5592 5597 5609 5615 5618 5608 5599 5608 5604 5597 5592 5589 5587 5578 5574 5571 5566 5560 5555 5549 5544 5539 5534 5530 5525 5520 5514 5508 5503 5497 5491 5486 5480 5473 5468 5462 5457 5453 5448 5444
5595 5592 5583 5579 5580 5579 5591 5607 5613 5602 5583 5595 5594 5587 5583 5582 5576 5565 5557 5552 5547 5543 5539 5534 5529 5525 5520 5515 5510 5504 5498 5493 5487 5482 5477 5471 5465 5459 5453 5448 5444 5440 5435 5430
5573 5572 5570 5568 5568 5577 5589 5601 5603 5583 5574 5585 5583 5578 5573 5566 5561 5550 5542 5537 5533 5528 5524 5520 5515 5510 5505 5500 5495 5489 5484 5478 5474 5469 5463 5458 5452 5446 5440 5435 5430 5426 5422 5417
5561 5558 5560 5559 5558 5563 5583 5587 5577 5571 5575 5573 5568 5563 5557 5551 5543 5535 5529 5523 5519 5514 5510 5506 5501 5496 5492 5487 5482 5477 5471 5467 5462 5457 5450 5444 5438 5434 5429 5423 5418 5414 5409 5404
5556 5557 5556 5558 5556 5566 5573 5572 5571 5570 5566 5563 5556 5550 5546 5539 5531 5523 5516 5511 5506 5502 5497 5493 5488 5484 5480 5476 5471 5466 5462 5458 5452 5445 5437 5432 5427 5422 5417 5411 5406 5401 5396 5391
5555 5561 5557 5554 5555 5559 5561 5562 5562 5562 5559 5554 5547 5540 5535 5528 5519 5511 5504 5498 5494 5490 5486 5482 5478 5473 5469 5466 5462 5457 5454 5449 5442 5434 5427 5421 5415 5410 5405 5400 5395 5390 5385 5382
5548 5551 5549 5546 5549 5550 5551 5550 5550 5549 5546 5540 5534 5528 5522 5516 5507 5500 5493 5488 5484 5481 5477 5473 5468 5464 5460 5457 5453 5450 5446 5441 5433 5426 5418 5412 5406 5400 5395 5391 5387 5383 5380 5377
5540 5540 5540 5539 5543 5541 5539 5539 5539 5535 5530 5526 5521 5514 5509 5504 5498 5491 5485 5481 5477 5474 5470 5466 5462 5457 5453 5450 5445 5441 5437 5432 5424 5416 5409 5402 5396 5392 5387 5383 5381 5379 5377 5375